Location: Caltech
(34.1382°N, 118.1253°W)
Time: 07:10:42
(UTC-07:00)

Lacrosse 5 - Visible Passes

Search period start: 23 July 2014 00:00
Search period end: 02 August 2014 00:00
Orbit: 710 x 718 km, 57.0° (Epoch: 17 July)

Date Brightness Start Highest point End Pass type
(mag) Time Alt. Az. Time Alt. Az. Time Alt. Az.
23 Jul 4.2 20:52:42 10° N 20:54:41 12° NNE 20:56:39 10° NE visible
23 Jul 2.1 22:33:28 10° NNW 22:38:21 60° NE 22:38:21 60° NE visible
24 Jul 3.0 21:39:02 10° NNW 21:43:32 32° NE 21:45:27 24° E visible
24 Jul 3.5 23:21:48 10° WNW 23:24:32 27° W 23:24:32 27° W visible
25 Jul 3.8 20:44:55 10° N 20:48:25 18° NE 20:51:55 10° E visible
25 Jul 1.8 22:26:42 10° NW 22:31:42 75° WSW 22:31:42 75° WSW visible
26 Jul 2.2 21:32:01 10° NNW 21:36:58 54° NE 21:38:56 33° ESE visible
26 Jul 4.0 23:15:57 10° WNW 23:18:01 17° W 23:18:01 17° W visible
27 Jul 3.1 20:37:38 10° NNW 20:42:01 29° NE 20:46:13 11° E visible
27 Jul 2.6 22:20:14 10° NW 22:24:55 39° WSW 22:25:19 39° SW visible
28 Jul 1.8 21:25:13 10° NW 21:30:16 84° SW 21:32:40 32° SSE visible
29 Jul 2.3 20:30:35 10° NNW 20:35:28 49° NE 20:40:05 11° ESE visible
29 Jul 3.6 22:14:15 10° WNW 22:17:59 21° WSW 22:19:12 19° SW visible
30 Jul 2.7 21:18:41 10° NW 21:23:28 44° WSW 21:26:42 19° S visible
31 Jul 1.9 20:23:44 10° NW 20:28:48 88° NE 20:33:51 10° SE visible
31 Jul 4.4 22:10:05 10° WSW 22:10:57 10° WSW 22:11:50 10° SW visible
01 Aug 3.7 21:12:35 10° WNW 21:16:33 24° WSW 21:20:31 10° S visible
